[[{"header":{"parameterUnit":"m.s-1","parameterCategory":1,"la1":30.2991,"la2":30.254,"lo1":-89.0895,"lo2":-89.0444,"dy":0.0017,"dx":0.0017,"nx":28,"ny":28,"refTime":"2024-08-07T03:00:00:Z","depth":0,"parameterNumber":2,"parameterNumberName":"U-component_of_WINDS"},"data":[0,0,0,0,0,0,0,0,0,0,0,0,0,0,0,0,0,0,0,0,0,0,0,0,0,0,0,0,0,0,0,0,0,0,0,0,0,0,0,0,0,0,0,0,0,0,0,0,0,0,0,0,0,0,0,0,0,0,2.3928,2.3928,0,2.3984,2.3984,2.3985,2.396,2.3958,2.3957,2.3956,2.4011,2.4014,2.4016,0,0,0,0,0,0,0,0,0,0,0,0,0,2.3797,2.38,2.3927,2.3928,2.3929,2.3984,2.3984,2.3985,2.396,2.3958,2.3957,2.3955,2.401,2.4013,2.4017,0,0,0,0,0,0,0,0,0,0,0,0,0,2.3854,2.3801,2.3927,2.3923,2.3923,2.3984,2.3984,2.3985,2.396,2.3958,2.3956,2.3954,2.4009,2.4013,2.4017,2.4084,0,0,2.403,2.4032,0,0,0,0,0,0,0,0,2.385,2.3858,2.3923,2.3923,2.3924,2.3963,2.3959,2.4019,2.3961,2.3946,2.3956,2.3953,2.3996,2.4001,2.4017,2.4087,2.4089,2.403,2.4033,2.4034,2.4036,0,0,0,0,0,0,0,2.3847,2.3856,2.395,2.3924,2.3924,2.3918,2.3924,2.397,2.3982,2.3947,2.3946,2.3953,2.3996,2.4013,2.4018,2.409,2.403,2.4034,2.4036,2.4038,2.4221,2.4223,0,0,0,0,0,0,2.3843,2.3853,2.3948,2.3951,2.3881,2.3922,2.3928,2.3952,2.3982,2.3984,2.3954,2.3951,2.4007,2.4013,2.4019,2.4102,2.4034,2.4038,2.4041,2.4218,2.4221,2.4224,0,0,0,0,0,0,2.384,2.3852,2.3946,2.3902,2.3913,2.3926,2.3953,2.3954,2.3971,2.3987,2.3989,2.3969,2.4005,2.4014,2.4069,2.4103,2.404,2.4044,2.4216,2.4219,2.4223,2.4266,0,0,0,0,0,0,2.3837,2.3851,2.3877,2.3903,2.3916,2.3995,2.3955,2.3957,2.3978,2.3975,2.4001,2.4004,2.4004,2.4063,2.4073,2.4108,2.4047,2.4213,2.4217,2.4222,2.4262,2.4271,2.4279,0,0,0,0,0,2.3832,2.3886,2.3878,2.389,2.3948,2.3997,2.4004,2.4004,2.3981,2.4007,2.4018,2.4003,2.4098,2.4069,2.408,2.4117,2.4211,2.4216,2.4221,2.4258,2.4269,2.4278,0,0,0,0,0,0,2.3862,2.3889,2.3881,2.3945,2.3969,2.3992,2.4025,2.4016,2.4046,2.4042,2.404,2.4046,2.4104,2.4115,2.4083,2.4184,2.4151,2.4158,2.4175,2.4186,2.4194,2.419,2.4051,0,0,0,0,0,2.3877,2.3914,2.3935,2.3989,2.4002,2.4012,2.4033,2.4031,2.4056,2.4066,2.408,2.4104,2.414,2.4163,2.4196,2.4263,2.4269,2.4294,2.4302,2.4309,2.4316,2.4354,2.4366,2.4241,2.4241,2.4241,0,0,2.3906,2.3925,2.3949,2.3996,2.4015,2.4054,2.402,2.4063,2.4092,2.4072,2.4126,2.4137,2.4164,2.4226,2.4254,2.4238,2.4352,2.4316,2.4321,2.4325,2.4361,2.4373,2.4383,2.4245,2.4244,2.4244,0,0,2.3981,2.3998,2.4047,2.4066,2.4095,2.4102,2.4113,2.4139,2.4146,2.4201,2.4187,2.4221,2.4282,2.4302,2.432,2.4405,2.4392,2.4415,2.4459,2.4497,2.4507,2.4515,2.4547,2.4558,2.4422,2.4422,2.4422,0,2.4013,2.4072,2.4072,2.4117,2.4138,2.4123,2.4172,2.4191,2.4229,2.4244,2.4225,2.4303,2.4319,2.4387,2.4408,2.4422,2.4436,2.4413,2.4505,2.4514,2.4522,2.4552,2.4564,2.4425,2.4425,2.4424,2.4424,0,2.4112,2.4154,2.4189,2.4228,2.4253,2.43,2.4307,2.4332,2.4329,2.4337,2.4393,2.4413,2.4451,2.4467,2.4463,2.4535,2.4524,2.4505,2.4471,2.4537,2.4565,2.4577,2.4429,2.4428,2.4427,2.4426,0,0,2.4207,2.4247,2.426,2.4278,2.431,2.4342,2.4387,2.4426,2.4449,2.4475,2.4515,2.4567,2.4551,2.4572,2.457,2.4603,2.467,2.458,2.4581,2.4598,2.4753,2.4768,2.4781,2.4662,2.4664,2.4666,2.4751,0,2.4285,2.4367,2.4369,2.4444,2.4482,2.4469,2.4509,2.4533,2.4543,2.4577,2.4586,2.4625,2.4599,2.4612,2.4644,2.4655,2.4702,2.4649,2.4699,2.4701,2.4694,2.4795,2.4811,2.489,2.4762,2.4764,2.4765,0,2.4387,2.4419,2.4498,2.4526,2.4543,2.4579,2.4615,2.4648,2.4675,2.4679,2.4704,2.4698,2.4745,2.4709,2.4775,2.474,2.476,2.4769,2.4772,2.4778,2.4738,2.4805,2.4915,2.4928,2.4782,2.4781,2.4779,0,2.445,2.4513,2.4569,2.4585,2.4618,2.4645,2.466,2.4685,2.4708,2.474,2.4755,2.4791,2.4812,2.484,2.4844,2.4817,2.4911,2.4875,2.4916,2.4917,2.4938,2.4936,2.5054,2.4948,2.4948,2.4948,2.4948,0,2.4538,2.4587,2.4599,2.4633,2.4689,2.469,2.4745,2.4758,2.478,2.4818,2.4807,2.4842,2.4845,2.4881,2.4884,2.4939,2.4948,2.4953,2.4954,2.4955,2.4955,2.497,2.4965,2.4951,2.495,2.495,2.4949,0,2.4618,2.4628,2.4688,2.4716,2.4724,2.4764,2.4787,2.482,2.4829,2.4876,2.4887,2.4901,2.4943,2.495,2.4998,2.5001,2.5068,2.5061,2.5059,2.5059,2.5101,2.5097,2.5233,2.5252,2.5133,2.5134,2.5135,0,2.4674,2.4713,2.4745,2.4769,2.4786,2.4826,2.4851,2.4854,2.488,2.4915,2.4944,2.4985,2.5019,2.5086,2.5101,2.5138,2.5134,2.5179,2.514,2.5141,2.5137,2.5135,2.514,2.5187,2.5188,2.5189,2.519,0,2.4774,2.4777,2.4813,2.4852,2.4882,2.4912,2.4941,2.4961,2.4968,2.4998,2.5042,2.5068,2.5119,2.516,2.5198,2.5213,2.5204,2.5203,2.5215,2.5217,2.5215,2.5219,2.5081,2.52,2.5199,2.5198,2.5197,2.5197,2.4845,2.4879,2.4908,2.4949,2.4971,2.4998,2.5032,2.5045,2.5082,2.5125,2.5124,2.5173,2.52,2.525,2.5268,2.5306,2.5291,2.5308,2.5313,2.5317,2.5322,2.5208,2.5312,2.5312,2.5312,2.5312,2.5312,0,2.4945,2.4963,2.5001,2.5043,2.5075,2.5064,2.5095,2.5123,2.5167,2.5193,2.5227,2.5278,2.5319,2.5336,2.5377,2.5404,2.54,2.5414,2.5413,2.5417,2.5332,2.5319,2.5416,2.5416,2.5416,2.5416,2.5416,2.5416,2.5001,2.5059,2.5066,2.5135,2.5152,2.5201,2.522,2.5245,2.5267,2.5325,2.5359,2.5371,2.5395,2.5437,2.5474,2.5478,2.5494,2.551,2.5513,2.5433,2.5423,2.5413,2.54,2.5513,2.5513,2.5595,2.5595,2.5596]},{"header":{"parameterUnit":"m.s-1","parameterCategory":1,"la1":30.2991,"la2":30.254,"lo1":-89.0895,"lo2":-89.0444,"dy":0.0017,"dx":0.0017,"nx":28,"ny":28,"refTime":"2024-08-07T03:00:00:Z","depth":0,"parameterNumber":3,"parameterNumberName":"V-component_of_WINDS"},"data":[0,0,0,0,0,0,0,0,0,0,0,0,0,0,0,0,0,0,0,0,0,0,0,0,0,0,0,0,0,0,0,0,0,0,0,0,0,0,0,0,0,0,0,0,0,0,0,0,0,0,0,0,0,0,0,0,0,0,-1.4435,-1.4435,0,-1.4454,-1.4455,-1.4455,-1.4458,-1.4457,-1.4457,-1.4457,-1.4476,-1.4476,-1.4477,0,0,0,0,0,0,0,0,0,0,0,0,0,-1.4401,-1.4402,-1.4435,-1.4436,-1.4436,-1.4454,-1.4455,-1.4455,-1.4458,-1.4457,-1.4457,-1.4457,-1.4476,-1.4476,-1.4477,0,0,0,0,0,0,0,0,0,0,0,0,0,-1.4418,-1.4402,-1.4435,-1.4439,-1.444,-1.4454,-1.4455,-1.4455,-1.4458,-1.4457,-1.4457,-1.4457,-1.4475,-1.4476,-1.4477,-1.4489,0,0,-1.448,-1.4481,0,0,0,0,0,0,0,0,-1.4417,-1.4419,-1.4439,-1.4439,-1.444,-1.4453,-1.445,-1.4466,-1.4458,-1.4451,-1.4457,-1.4457,-1.4468,-1.447,-1.4474,-1.4489,-1.449,-1.448,-1.4481,-1.4481,-1.4482,0,0,0,0,0,0,0,-1.4416,-1.4418,-1.4443,-1.4439,-1.444,-1.444,-1.4442,-1.4453,-1.4461,-1.4451,-1.4452,-1.4454,-1.4469,-1.4473,-1.4475,-1.4491,-1.448,-1.4481,-1.4482,-1.4482,-1.4517,-1.4517,0,0,0,0,0,0,-1.4414,-1.4417,-1.4442,-1.4443,-1.4427,-1.4441,-1.4443,-1.4449,-1.4461,-1.4462,-1.4454,-1.4454,-1.4472,-1.4473,-1.4475,-1.449,-1.4481,-1.4482,-1.4483,-1.4517,-1.4517,-1.4518,0,0,0,0,0,0,-1.4413,-1.4416,-1.4441,-1.443,-1.4434,-1.4442,-1.4448,-1.445,-1.4454,-1.4463,-1.4464,-1.4457,-1.4471,-1.4474,-1.4486,-1.449,-1.4483,-1.4484,-1.4516,-1.4517,-1.4517,-1.4518,0,0,0,0,0,0,-1.4412,-1.4416,-1.442,-1.4431,-1.4434,-1.4451,-1.4449,-1.445,-1.4456,-1.4456,-1.4466,-1.4467,-1.4471,-1.4484,-1.4486,-1.4492,-1.4484,-1.4516,-1.4517,-1.4517,-1.4518,-1.4519,-1.452,0,0,0,0,0,-1.4411,-1.4419,-1.442,-1.4423,-1.444,-1.4452,-1.4454,-1.4458,-1.4456,-1.4461,-1.4467,-1.4467,-1.449,-1.4485,-1.4488,-1.4493,-1.4516,-1.4516,-1.4517,-1.4517,-1.4519,-1.452,0,0,0,0,0,0,-1.4408,-1.442,-1.4422,-1.4434,-1.4442,-1.4452,-1.4458,-1.4459,-1.4468,-1.4467,-1.4473,-1.4475,-1.4486,-1.4491,-1.4486,-1.4506,-1.4502,-1.4504,-1.4502,-1.4503,-1.4504,-1.4502,-1.4485,0,0,0,0,0,-1.4409,-1.4418,-1.4428,-1.4438,-1.4442,-1.4449,-1.4454,-1.4457,-1.4466,-1.4469,-1.4475,-1.4483,-1.4492,-1.4498,-1.4507,-1.4519,-1.4521,-1.4524,-1.4525,-1.4526,-1.4527,-1.4534,-1.4535,-1.452,-1.452,-1.452,0,0,-1.4411,-1.4419,-1.4424,-1.4437,-1.4444,-1.4453,-1.4452,-1.4461,-1.4468,-1.447,-1.4482,-1.4487,-1.4496,-1.4508,-1.4514,-1.4513,-1.4532,-1.4527,-1.4527,-1.4528,-1.4535,-1.4536,-1.4538,-1.452,-1.452,-1.452,0,0,-1.4418,-1.4425,-1.4434,-1.4441,-1.4451,-1.4456,-1.4459,-1.4469,-1.4473,-1.4485,-1.4487,-1.4495,-1.451,-1.4517,-1.4522,-1.4534,-1.4535,-1.4537,-1.4541,-1.4548,-1.455,-1.4551,-1.4555,-1.4556,-1.4538,-1.4538,-1.4538,0,-1.4419,-1.4433,-1.4438,-1.4448,-1.4454,-1.4458,-1.4467,-1.4473,-1.4486,-1.449,-1.4488,-1.4508,-1.4515,-1.4529,-1.4532,-1.4536,-1.4539,-1.4535,-1.4549,-1.455,-1.4551,-1.4555,-1.4557,-1.4538,-1.4538,-1.4538,-1.4538,0,-1.4433,-1.4443,-1.4449,-1.4461,-1.4468,-1.4477,-1.4485,-1.4491,-1.4494,-1.45,-1.4512,-1.452,-1.4531,-1.4535,-1.4537,-1.4549,-1.4548,-1.4548,-1.4545,-1.4553,-1.4557,-1.4558,-1.4538,-1.4538,-1.4538,-1.4538,0,0,-1.4438,-1.4455,-1.4457,-1.4463,-1.4475,-1.4483,-1.4493,-1.4504,-1.4509,-1.4518,-1.4526,-1.454,-1.454,-1.4546,-1.455,-1.4556,-1.4565,-1.4555,-1.4556,-1.4557,-1.458,-1.4579,-1.4581,-1.4567,-1.4567,-1.4567,-1.4579,0,-1.4447,-1.4465,-1.4471,-1.4486,-1.4495,-1.4499,-1.4508,-1.4517,-1.4522,-1.4531,-1.4537,-1.4547,-1.4546,-1.455,-1.4556,-1.4563,-1.457,-1.4562,-1.4574,-1.4575,-1.4571,-1.4583,-1.4583,-1.4593,-1.458,-1.4581,-1.4581,0,-1.446,-1.4469,-1.4485,-1.4497,-1.4501,-1.4509,-1.452,-1.4528,-1.4538,-1.4542,-1.455,-1.4553,-1.4564,-1.4561,-1.4576,-1.457,-1.4576,-1.458,-1.4581,-1.4581,-1.4578,-1.4584,-1.4597,-1.4598,-1.4583,-1.4583,-1.4583,0,-1.4462,-1.4479,-1.4491,-1.4496,-1.451,-1.4515,-1.4522,-1.4531,-1.4538,-1.4548,-1.4552,-1.4563,-1.4569,-1.4577,-1.4584,-1.4581,-1.4598,-1.4596,-1.4601,-1.4601,-1.4604,-1.4604,-1.4617,-1.4608,-1.4608,-1.4608,-1.4608,0,-1.4471,-1.448,-1.4492,-1.4499,-1.451,-1.4517,-1.4528,-1.4534,-1.4544,-1.4552,-1.4557,-1.4565,-1.4573,-1.4582,-1.4587,-1.4599,-1.4602,-1.4605,-1.4606,-1.4604,-1.4604,-1.4607,-1.4607,-1.4609,-1.4609,-1.4609,-1.4609,0,-1.4475,-1.4483,-1.4496,-1.4509,-1.4512,-1.452,-1.4531,-1.4538,-1.4545,-1.4556,-1.4559,-1.4569,-1.458,-1.4587,-1.4602,-1.4605,-1.4618,-1.4619,-1.4614,-1.4615,-1.462,-1.4619,-1.4636,-1.4639,-1.4628,-1.4629,-1.4629,0,-1.4479,-1.4487,-1.4501,-1.4507,-1.4514,-1.4524,-1.4531,-1.4539,-1.4546,-1.4559,-1.4564,-1.4576,-1.4586,-1.4603,-1.4612,-1.4623,-1.4624,-1.4629,-1.4626,-1.4624,-1.4624,-1.4623,-1.4624,-1.463,-1.463,-1.463,-1.463,0,-1.4487,-1.4491,-1.4501,-1.4513,-1.4522,-1.4531,-1.4541,-1.4546,-1.4555,-1.4563,-1.4575,-1.4582,-1.4598,-1.4609,-1.4621,-1.4627,-1.463,-1.4631,-1.4633,-1.4631,-1.4628,-1.4629,-1.4615,-1.463,-1.463,-1.463,-1.463,-1.463,-1.4492,-1.4499,-1.451,-1.4521,-1.453,-1.4539,-1.4546,-1.4554,-1.4564,-1.4577,-1.4582,-1.4594,-1.4605,-1.4621,-1.4628,-1.4638,-1.4637,-1.464,-1.4641,-1.4641,-1.4641,-1.4627,-1.464,-1.464,-1.464,-1.464,-1.464,0,-1.45,-1.4508,-1.4518,-1.4532,-1.4541,-1.4543,-1.4554,-1.4562,-1.4573,-1.4583,-1.4592,-1.4606,-1.4618,-1.4628,-1.464,-1.4645,-1.4647,-1.4648,-1.4648,-1.4649,-1.4641,-1.4638,-1.4647,-1.4647,-1.4647,-1.4647,-1.4647,-1.4647,-1.4505,-1.4517,-1.4523,-1.454,-1.4547,-1.456,-1.4566,-1.4574,-1.4583,-1.4598,-1.4608,-1.4614,-1.4624,-1.4637,-1.4648,-1.4651,-1.4655,-1.4656,-1.4658,-1.465,-1.465,-1.4649,-1.4646,-1.4657,-1.4657,-1.4666,-1.4666,-1.4666]}]]